一网星座-0243星 (ONEWEB-0243 )

导读 | 豆包AI

ONEWEB-0243是英国OneWeb星座中的低轨通信卫星,于北京时间2021年5月28日8时发射。它隶属于OneWeb全球宽带网络项目,运行在近地轨道,旨在为全球偏远地区提供高速互联网接入服务。作为OneWeb大规模组网中的一员,它进一步推动了低轨卫星通信网络的覆盖能力建设。

Basic Information
目录编号:
48774
目录名称:
ONEWEB-0243
国际标识:
2021-045H
轨道中心:
EARTH
卫星名称:
一网星座-0243星
卫星全名:
一网星座-0243星 (ONEWEB-0243 )
卫星状态:
在轨 (已飞行1751 天)
发射日期:
2021-05-28 UTC
国别 :
英国 (GB)
星等 :
--
Orbit Information
数据来源 国际轨道数据 AOE轨道数据
星历时间 2026-03-14T04:11:14+0800
15小时前
查看轨道信息
2026-03-14T09:00:00+0800
11小时前
查看轨道信息
半长轴 7579.9km 7579.863km
偏心率 0.0001565 0.0001963
轨道倾角 87.894° 87.893°
近地点辐角 110.564° 128.733°
升交点赤经 278.258° 278.221°
平近点角 249.566° 100.590°
近地点 1200.576km 1200.238km
远地点 1202.95km 1203.214km
周期 109.460分钟 109.459分钟
每日圈数 13.155507 13.155603
Detailed Information
平衡模式:
三轴稳定
覆盖范围:
全球
运营商:
一网卫星公司
运营商所在国:
英国
制造商(研发单位):
一网卫星公司
制造商所在国:
英国
使用方式:
暂无
Satellite Introduction
OneWeb卫星网络由648颗重约125公斤的微型卫星组成,运行在1200公里的轨道上。 每颗卫星都能够提供至少每秒8千兆位的吞吐量,以使用其高吞吐量的Ku频段有效载荷为家庭和移动平台提供互联网接入。该卫星仍在工作。
2D Orbit Map
3D Orbit Map
Orbit Altitude Analysis Chart
Orbit Inclination Analysis Chart
Orbit Comprehensive Analysis Chart
View Comprehensive Chart